Location: Dos Palmas
(32.4468°N, 116.8732°W)
Time: 13:23:07
(UTC+00:00)

Meteor 1-10 Rocket - Pass Details

Date: 20 June 2021
Orbit: 835 x 911 km, 81.3° (Epoch: 30 July)

Event Time Altitude Azimuth Distance (km) Brightness Sun altitude
Rises 11:05:38 0° 354° (N) 3,515 8.0 -17.1°
Reaches altitude 10° 11:08:08 10° 356° (N) 2,562 7.2 -16.7°
Maximum altitude 11:13:58 73° 81° (E) 917 4.5 -15.8°
Drops below altitude 10° 11:19:38 10° 166° (SSE) 2,496 6.4 -14.9°
Sets 11:22:02 0° 169° (SSE) 3,419 7.1 -14.5°
